This demonstration page uses our WeatherBlox Daily Observations layout. Learn more.

Left ArrowRight Arrow

Hourly Observations for June 5, 2015

Temp ( °F °C ) Dew Point ( °F °C ) Humidity (%) Winds ( mph kmh ) Pressure ( in mb ) Visibility ( mi km ) Precip ( " mm )
12:59 am 00:59 Cloudy 65 18.3 63 17.2 93 93 NE 13 20 30.06 1018 8 13 0.00 0.00
1:59 am 01:59 Cloudy 65 18.3 63 17.2 93 93 NNE 12 19 30.06 1018 8 13 0.00 0.00
2:59 am 02:59 Cloudy with Drizzle 65 18.3 63 17.2 93 93 NNE 13 20 30.04 1017 4 6 0.00 0.03
3:59 am 03:59 Cloudy with Drizzle 65 18.3 63 17.2 93 93 NE 13 20 30.03 1017 4 6 0.00 0.03
4:59 am 04:59 Cloudy with Mist and Fog 65 18.3 63 17.2 93 93 NNE 13 20 30.03 1017 5 8 0.00 0.03
5:59 am 05:59 Cloudy with Drizzle 65 18.3 63 17.2 93 93 N 13 20 30.04 1017 3 5 0.00 0.03
6:28 am 06:28 Cloudy with Drizzle 65 18.3 63 17.2 93 93 N 13 20 30.03 1017 2 3 0.00 0.00
6:59 am 06:59 Cloudy with Drizzle 67 19.4 65 18.3 93 93 N 13 20 30.05 1018 2 3 0.00 0.03
7:59 am 07:59 Cloudy with Drizzle 67 19.4 65 18.3 93 93 NNW 12 19 30.04 1017 2 3 0.00 0.03
8:59 am 08:59 Cloudy with Drizzle 67 19.4 65 18.3 93 93 NNW 12 19 30.05 1018 2 3 0.00 0.03
9:46 am 09:46 Cloudy with Mist and Fog 67 19.4 64 17.8 91 91 N 14 22 30.06 1018 3 5 0.00 0.00
9:59 am 09:59 Cloudy with Mist and Fog 69 20.6 63 17.2 81 81 N 14 22 30.05 1018 4 6 0.00 0.03
10:06 am 10:06 Cloudy with Mist and Fog 69 20.6 63 17.2 81 81 N 14 22 30.06 1018 6 10 0.00 0.00
10:16 am 10:16 Cloudy with Mist and Fog 69 20.6 63 17.2 81 81 N 13 20 30.06 1018 5 8 0.00 0.00
10:59 am 10:59 Cloudy with Drizzle 71 21.7 64 17.8 79 79 N 13 20 30.05 1018 4 6 0.00 0.03
11:59 am 11:59 Cloudy with Drizzle 71 21.7 63 17.2 76 76 N 14 22 30.05 1018 6 10 0.00 0.03
12:59 pm 12:59 Cloudy 71 21.7 63 17.2 76 76 N 10 17 30.04 1017 8 13 0.00 0.00
1:26 pm 13:26 Cloudy with Haze 71 21.7 63 17.2 76 76 N 9 15 30.03 1017 6 10 0.00 0.00
1:43 pm 13:43 Cloudy with Mist and Fog 71 21.7 63 17.2 76 76 N 10 17 30.00 1016 5 8 0.00 0.00
1:59 pm 13:59 Cloudy 72 22.2 63 17.2 73 73 N 8 13 30.01 1016 10 16 0.00 0.00
2:27 pm 14:27 Cloudy 72 22.2 63 17.2 73 73 N 8 13 30.00 1016 10 16 0.00 0.00
2:59 pm 14:59 Cloudy 72 22.2 63 17.2 73 73 N 7 11 30.00 1016 10 16 0.00 0.00
3:59 pm 15:59 Cloudy 73 22.8 63 17.2 71 71 N 8 13 29.99 1016 10 16 0.00 0.00
4:59 pm 16:59 Cloudy 72 22.2 63 17.2 73 73 NNE 9 15 29.98 1015 10 16 0.00 0.00
5:59 pm 17:59 Cloudy 72 22.2 63 17.2 73 73 NNE 9 15 29.96 1015 10 16 0.00 0.00
6:59 pm 18:59 Mostly Cloudy 72 22.2 63 17.2 73 73 N 7 11 29.96 1014 10 16 0.00 0.00
7:59 pm 19:59 Cloudy 71 21.7 63 17.2 76 76 N 7 11 29.95 1014 10 16 0.00 0.00
8:59 pm 20:59 Cloudy 71 21.7 63 17.2 76 76 N 6 9 29.96 1014 10 16 0.00 0.00
9:59 pm 21:59 Cloudy 71 21.7 63 17.2 76 76 NW 6 9 29.96 1015 10 16 0.00 0.00
10:59 pm 22:59 Cloudy 71 21.7 64 17.8 79 79 NNW 5 7 29.94 1014 10 16 0.00 0.00
11:59 pm 23:59 Cloudy 71 21.7 64 17.8 79 79 N 7 11 29.93 1014 10 16 0.00 0.00

Powered by AerisWeather